This demonstration page uses our WeatherBlox Daily Observations layout. Learn more.

Left ArrowRight Arrow

36.17497, -115.13722

Hourly Observations for January 24, 2022

Temp ( °F °C ) Dew Point ( °F °C ) Humidity (%) Winds ( mph kmh ) Pressure ( in mb ) Visibility ( mi km ) Precip ( " mm )
12:53 am 00:53 Clear 51 10.6 14 -10 23 23 NNW 10 17 30.17 1022 10 16 0.00 0.00
1:53 am 01:53 Clear 49 9.4 15 -9.4 26 26 NW 10 17 30.18 1022 10 16 0.00 0.00
2:53 am 02:53 Clear 50 10 15 -9.4 25 25 NW 10 17 30.16 1021 10 16 0.00 0.00
3:53 am 03:53 Clear 47 8.3 16 -8.9 29 29 SW 5 7 30.16 1021 10 16 0.00 0.00
4:53 am 04:53 Clear 47 8.3 17 -8.3 30 30 NW 17 28 30.14 1021 10 16 0.00 0.00
5:53 am 05:53 Clear 48 8.9 18 -7.8 30 30 NW 9 15 30.14 1021 10 16 0.00 0.00
6:53 am 06:53 Sunny 50 10 19 -7.2 29 29 NW 16 26 30.14 1021 10 16 0.00 0.00
7:53 am 07:53 Sunny 50 10 19 -7.2 29 29 NNW 14 22 30.15 1021 10 16 0.00 0.00
8:53 am 08:53 Sunny 53 11.7 20 -6.7 27 27 NNW 7 11 30.16 1021 10 16 0.00 0.00
9:53 am 09:53 Sunny 55 12.8 20 -6.7 25 25 Calm 30.16 1021 10 16 0.00 0.00
10:53 am 10:53 Sunny 59 15 21 -6.1 23 23 E 3 6 30.14 1021 10 16 0.00 0.00
11:53 am 11:53 Sunny 60 15.6 21 -6.1 22 22 Calm 30.09 1019 10 16 0.00 0.00
12:53 pm 12:53 Sunny 62 16.7 21 -6.1 21 21 S 3 6 30.05 1018 10 16 0.00 0.00
1:53 pm 13:53 Sunny 65 18.3 21 -6.1 19 19 E 5 7 30.02 1017 10 16 0.00 0.00
2:53 pm 14:53 Sunny 65 18.3 21 -6.1 19 19 VRB 3 6 30.01 1016 10 16 0.00 0.00
3:53 pm 15:53 Sunny 66 18.9 21 -6.1 18 18 S 3 6 30.00 1016 10 16 0.00 0.00
4:53 pm 16:53 Sunny 64 17.8 21 -6.1 19 19 Calm 29.99 1016 10 16 0.00 0.00
5:53 pm 17:53 Clear 60 15.6 21 -6.1 22 22 Calm 29.98 1015 10 16 0.00 0.00
6:53 pm 18:53 Clear 56 13.3 23 -5 28 28 W 5 7 29.99 1016 10 16 0.00 0.00
7:53 pm 19:53 Clear 51 10.6 23 -5 33 33 WNW 6 9 30.00 1016 10 16 0.00 0.00
8:53 pm 20:53 Clear 50 10 23 -5 35 35 WNW 6 9 29.99 1016 10 16 0.00 0.00
9:53 pm 21:53 Clear 48 8.9 23 -5 37 37 WNW 7 11 29.99 1016 10 16 0.00 0.00
10:53 pm 22:53 Clear 48 8.9 21 -6.1 34 34 NW 7 11 29.98 1015 10 16 0.00 0.00
11:53 pm 23:53 Clear 45 7.2 22 -5.6 40 40 Calm 29.96 1015 10 16 0.00 0.00

Powered by AerisWeather